TimeEDT,TemperatureF,Dew PointF,Humidity,Sea Level PressureIn,VisibilityMPH,Wind Direction,Wind SpeedMPH,Gust SpeedMPH,PrecipitationIn,Events,Conditions,WindDirDegrees,DateUTC
12:53 AM,54.0,36.0,51,30.05,10.0,ENE,4.6,-,N/A,,Clear,60,2013-05-06 04:53:00
1:53 AM,53.1,36.0,52,30.03,10.0,ENE,5.8,-,N/A,,Clear,60,2013-05-06 05:53:00
2:53 AM,51.1,36.0,56,30.04,10.0,ENE,3.5,-,N/A,,Clear,60,2013-05-06 06:53:00
3:53 AM,51.1,37.9,61,30.03,10.0,East,4.6,-,N/A,,Clear,90,2013-05-06 07:53:00
4:53 AM,46.9,37.9,71,30.04,10.0,East,3.5,-,N/A,,Clear,90,2013-05-06 08:53:00
5:53 AM,45.0,37.9,76,30.04,10.0,NE,3.5,-,N/A,,Partly Cloudy,50,2013-05-06 09:53:00
6:53 AM,48.0,39.0,71,30.05,10.0,East,4.6,-,N/A,,Mostly Cloudy,80,2013-05-06 10:53:00
7:53 AM,54.0,37.9,55,30.06,10.0,East,5.8,-,N/A,,Mostly Cloudy,100,2013-05-06 11:53:00
8:53 AM,57.0,36.0,45,30.06,10.0,ESE,8.1,-,N/A,,Mostly Cloudy,120,2013-05-06 12:53:00
9:53 AM,60.1,37.0,42,30.07,10.0,ENE,8.1,-,N/A,,Mostly Cloudy,70,2013-05-06 13:53:00
10:53 AM,62.1,39.9,44,30.07,10.0,SE,6.9,-,N/A,,Mostly Cloudy,140,2013-05-06 14:53:00
11:53 AM,64.0,39.0,40,30.07,10.0,ESE,9.2,-,N/A,,Mostly Cloudy,110,2013-05-06 15:53:00
12:53 PM,66.9,41.0,39,30.05,10.0,East,5.8,-,N/A,,Mostly Cloudy,80,2013-05-06 16:53:00
1:53 PM,69.1,43.0,39,30.04,10.0,East,9.2,-,N/A,,Mostly Cloudy,100,2013-05-06 17:53:00
2:53 PM,70.0,45.0,41,30.02,10.0,ESE,10.4,-,N/A,,Mostly Cloudy,120,2013-05-06 18:53:00
3:53 PM,73.0,46.9,39,30.00,10.0,SE,10.4,-,N/A,,Mostly Cloudy,140,2013-05-06 19:53:00
4:53 PM,72.0,44.1,37,29.99,10.0,SE,11.5,17.3,N/A,,Mostly Cloudy,140,2013-05-06 20:53:00
5:53 PM,71.1,44.1,38,29.99,10.0,SE,11.5,-,N/A,,Mostly Cloudy,140,2013-05-06 21:53:00
6:53 PM,70.0,42.1,36,29.99,10.0,SE,11.5,-,N/A,,Mostly Cloudy,130,2013-05-06 22:53:00
7:53 PM,69.1,41.0,36,30.00,10.0,SE,6.9,-,N/A,,Mostly Cloudy,130,2013-05-06 23:53:00
8:53 PM,66.9,41.0,39,30.01,10.0,SE,4.6,-,N/A,,Mostly Cloudy,130,2013-05-07 00:53:00
9:53 PM,62.1,43.0,50,30.02,10.0,East,4.6,-,N/A,,Mostly Cloudy,90,2013-05-07 01:53:00
10:53 PM,62.1,39.9,44,30.03,10.0,ESE,3.5,-,N/A,,Mostly Cloudy,120,2013-05-07 02:53:00
11:53 PM,60.1,39.0,46,30.03,10.0,ESE,3.5,-,N/A,,Scattered Clouds,120,2013-05-07 03:53:00